This demonstration page uses our WeatherBlox Daily Observations layout. Learn more.

Left ArrowRight Arrow

Hourly Observations for May 27, 2018

Temp ( °F °C ) Dew Point ( °F °C ) Humidity (%) Winds ( mph kmh ) Pressure ( in mb ) Visibility ( mi km ) Precip ( " mm )
12:53 am 00:53 Clear 57 13.9 48 8.9 72 72 SW 6 9 29.84 1011 10 16 N/A
1:53 am 01:53 Clear 53 11.7 48 8.9 83 83 N N/A 29.84 1011 10 16 N/A
2:53 am 02:53 Clear 52 11.1 48 8.9 86 86 WNW 6 9 29.85 1011 10 16 N/A
3:53 am 03:53 Mostly Clear 51 10.6 47 8.3 86 86 N N/A 29.88 1012 10 16 N/A
4:53 am 04:53 Clear 51 10.6 47 8.3 86 86 SW 3 6 29.92 1013 10 16 N/A
5:53 am 05:53 Sunny 48 8.9 45 7.2 89 89 WNW 3 6 29.94 1014 10 16 N/A
6:53 am 06:53 Sunny 51 10.6 48 8.9 89 89 WNW 3 6 29.95 1014 10 16 N/A
7:53 am 07:53 Sunny 60 15.6 50 10 70 70 SW 12 19 29.95 1014 10 16 N/A
8:53 am 08:53 Sunny 65 18.3 50 10 59 59 WSW 9 15 29.95 1014 10 16 N/A
9:53 am 09:53 Sunny 71 21.7 51 10.6 49 49 VRB 6 9 29.95 1014 10 16 N/A
10:53 am 10:53 Sunny 76 24.4 51 10.6 42 42 W 3 6 29.95 1014 10 16 N/A
11:53 am 11:53 Sunny 78 25.6 50 10 37 37 VRB 5 7 29.96 1015 10 16 N/A
12:53 pm 12:53 Sunny 79 26.1 47 8.3 32 32 SSW 8 13 29.97 1015 10 16 N/A
1:53 pm 13:53 Partly Cloudy 81 27.2 47 8.3 30 30 VRB 7 11 29.96 1015 10 16 N/A
2:53 pm 14:53 Cloudy 80 26.7 46 7.8 30 30 N N/A 29.96 1015 10 16 N/A
3:53 pm 15:53 Cloudy 80 26.7 46 7.8 30 30 SE 6 9 29.96 1014 10 16 N/A
4:53 pm 16:53 Sunny 82 27.8 47 8.3 29 29 SE 10 17 29.94 1014 10 16 N/A
5:53 pm 17:53 Sunny 81 27.2 48 8.9 32 32 ESE 10 17 29.93 1014 10 16 N/A
6:53 pm 18:53 Sunny 80 26.7 47 8.3 31 31 SSE 9 15 29.94 1014 10 16 N/A
7:53 pm 19:53 Sunny 76 24.4 50 10 40 40 SE 9 15 29.95 1014 10 16 N/A
8:53 pm 20:53 Sunny 71 21.7 53 11.7 53 53 ESE 7 11 29.95 1014 10 16 N/A
9:53 pm 21:53 Clear 65 18.3 54 12.2 68 68 ESE 3 6 29.96 1015 10 16 N/A
10:53 pm 22:53 Clear 65 18.3 52 11.1 63 63 ESE 6 9 29.96 1015 10 16 N/A
11:53 pm 23:53 Clear 63 17.2 50 10 63 63 N N/A 29.95 1014 10 16 N/A

Powered by AerisWeather